GW0404 Weather Reports


time (UTC)temp
F
wind
direction
speed
knots
gust
knots
rain 1hr
in
rain 24hr
in
rain mn
in
humidity
%
barometer
mb
20260503184808 70 242 0.0 0.0 0.00 0.00 0.00 45 1016.7
20260503184305 70 214 0.0 0.0 0.00 0.00 0.00 46 1016.3
20260503183800 71 269 0.0 0.0 0.00 0.00 0.00 44 1016.7
20260503183258 70 247 0.0 0.0 0.00 0.00 0.00 45 1016.7
20260503182755 70 201 0.0 0.0 0.00 0.00 0.00 47 1016.7
20260503182254 70 218 0.0 0.0 0.00 0.00 0.00 45 1017.0
20260503181750 71 251 0.0 0.0 0.00 0.00 0.00 46 1016.7
20260503181248 70 232 0.0 0.0 0.00 0.00 0.00 45 1016.7
20260503180744 69 248 0.0 0.0 0.00 0.00 0.00 47 1016.3
20260503180242 71 255 0.0 0.0 0.00 0.00 0.00 43 1016.7
20260503175738 71 238 0.0 0.0 0.00 0.00 0.00 48 1016.3
20260503175237 71 249 0.0 0.0 0.00 0.00 0.00 45 1016.7
20260503174732 69 265 0.0 0.0 0.00 0.00 0.00 52 1016.3
20260503174230 70 245 0.0 0.0 0.00 0.00 0.00 45 1016.3
20260503173725 68 262 0.0 0.0 0.00 0.00 0.00 48 1016.3
20260503173221 68 252 0.0 0.0 0.00 0.00 0.00 46 1016.7
20260503172718 70 250 0.0 0.0 0.00 0.00 0.00 49 1016.3
20260503172215 70 250 0.0 0.0 0.00 0.00 0.00 47 1016.7
20260503171711 70 245 0.0 0.0 0.00 0.00 0.00 50 1016.7
20260503171209 69 247 0.0 0.0 0.00 0.00 0.00 47 1016.7
20260503170706 68 257 0.0 0.0 0.00 0.00 0.00 55 1016.7
20260503170203 68 244 0.0 0.0 0.00 0.00 0.00 49 1016.7
20260503160124 65 247 0.0 0.0 0.00 0.00 0.00 52 1017.0
20260503150554 63 240 0.0 0.0 0.00 0.00 0.00 59 1017.4
20260503130944 59 237 0.0 0.0 0.00 0.00 0.00 87 1016.7
20260503130442 59 248 0.0 0.0 0.00 0.00 0.00 91 1016.7
20260503110332 47 243 0.0 0.0 0.00 0.00 0.00 96 1015.0
20260503100258 42 239 0.0 0.0 0.00 0.00 0.00 95 1014.3
20260503090218 43 239 0.0 0.0 0.00 0.00 0.00 95 1014.0
20260503081145 43 239 0.0 0.0 0.00 0.00 0.00 95 1013.6
20260503080641 44 239 0.0 0.0 0.00 0.00 0.00 95 1013.6
20260503080138 44 239 0.0 0.0 0.00 0.00 0.00 95 1013.6
20260503072615 44 239 0.0 0.0 0.00 0.00 0.00 95 1013.0
20260503072112 45 239 0.0 0.0 0.00 0.00 0.00 95 1013.3
20260503071608 45 239 0.0 0.0 0.00 0.00 0.00 95 1013.3
20260503071105 45 239 0.0 0.0 0.00 0.00 0.00 95 1013.3
20260503070602 45 239 0.0 0.0 0.00 0.00 0.00 95 1013.3
20260503055020 48 239 0.0 0.0 0.00 0.00 0.00 95 1013.0
20260503054516 48 239 0.0 0.0 0.00 0.00 0.00 95 1013.0
20260503054014 48 239 0.0 0.0 0.00 0.00 0.00 95 1013.0
20260503053512 48 239 0.0 0.0 0.00 0.00 0.00 95 1013.0
20260503053009 48 239 0.0 0.0 0.00 0.00 0.00 95 1013.0
20260503052506 48 239 0.0 0.0 0.00 0.00 0.00 95 1013.0
20260503052002 48 239 0.0 0.0 0.00 0.00 0.00 95 1013.0
20260503051458 49 239 0.0 0.0 0.00 0.00 0.00 95 1013.0
20260503050956 49 239 0.0 0.0 0.00 0.00 0.00 95 1012.6
20260503050451 49 239 0.0 0.0 0.00 0.00 0.00 95 1012.6
20260503045949 49 239 0.0 0.0 0.00 0.00 0.00 95 1012.6
20260503045446 49 239 0.0 0.0 0.00 0.00 0.00 95 1013.0
20260503044943 49 239 0.0 0.0 0.00 0.00 0.00 95 1012.6
20260503044440 49 239 0.0 0.0 0.00 0.00 0.00 95 1013.0
20260503043937 50 239 0.0 0.0 0.00 0.00 0.00 95 1012.6
20260503043433 50 239 0.0 0.0 0.00 0.00 0.00 95 1012.6
20260503042930 49 239 0.0 0.0 0.00 0.00 0.00 95 1012.6
20260503042427 50 239 0.0 0.0 0.00 0.00 0.00 95 1012.6
20260503041924 50 239 0.0 0.0 0.00 0.00 0.00 95 1012.6
20260503041420 50 239 0.0 0.0 0.00 0.00 0.00 95 1012.3
20260503040918 50 239 0.0 0.0 0.00 0.00 0.00 95 1012.3
20260503040415 50 239 0.0 0.0 0.00 0.00 0.00 95 1012.3
20260503035912 50 239 0.0 0.0 0.00 0.00 0.00 95 1012.3
20260503035409 50 239 0.0 0.0 0.00 0.00 0.00 95 1012.6
20260503034906 50 239 0.0 0.0 0.00 0.00 0.00 95 1012.6
20260503034404 50 239 0.0 0.0 0.00 0.00 0.00 95 1011.9
20260503033901 50 239 0.0 0.0 0.00 0.00 0.00 95 1011.9
20260503033358 50 239 0.0 0.0 0.00 0.00 0.00 95 1011.9
20260503032856 51 239 0.0 0.0 0.00 0.00 0.00 95 1011.9
20260503032355 51 239 0.0 0.0 0.00 0.00 0.00 95 1011.9
20260503031852 51 239 0.0 0.0 0.00 0.00 0.00 95 1011.9
20260503031349 51 239 0.0 0.0 0.00 0.00 0.00 95 1011.9
20260503030845 51 239 0.0 0.0 0.00 0.00 0.00 95 1011.6
20260503030342 51 239 0.0 0.0 0.00 0.00 0.00 95 1011.3
20260503025838 52 239 0.0 0.0 0.00 0.00 0.00 95 1011.3
20260503025336 52 239 0.0 0.0 0.00 0.00 0.00 95 1010.9
20260503024833 52 239 0.0 0.0 0.00 0.00 0.00 95 1011.3
20260503024330 52 243 0.0 0.0 0.00 0.00 0.00 95 1010.9
20260503023826 52 244 0.0 0.0 0.00 0.00 0.00 95 1011.3
20260503023324 53 234 0.0 0.0 0.00 0.00 0.00 95 1010.9
20260503022821 53 240 0.0 0.0 0.00 0.00 0.00 95 1010.9
20260503022320 53 238 0.0 0.0 0.00 0.00 0.00 95 1010.9
20260503021817 53 238 0.0 0.0 0.00 0.00 0.00 95 1011.3
20260503021313 53 240 0.0 0.0 0.00 0.00 0.00 95 1010.9
20260503020811 53 239 0.0 0.0 0.00 0.00 0.00 95 1010.9
20260503020309 54 232 0.0 0.0 0.00 0.00 0.00 95 1010.9
20260503015805 54 238 0.0 0.0 0.00 0.00 0.00 95 1010.9
20260503015305 54 241 0.0 0.0 0.00 0.00 0.00 95 1010.6
20260503014757 54 243 0.0 0.0 0.00 0.00 0.00 95 1010.6
20260503014255 54 242 0.0 0.0 0.00 0.00 0.00 95 1010.6
20260503013753 54 237 0.0 0.0 0.00 0.00 0.00 95 1010.6
20260503013250 54 239 0.0 0.0 0.00 0.00 0.00 95 1010.6
20260503012747 54 239 0.0 0.0 0.00 0.00 0.00 95 1010.2
20260503012244 54 239 0.0 0.0 0.00 0.00 0.00 95 1010.2
20260503011741 54 239 0.0 0.0 0.00 0.00 0.00 95 1010.2
20260503011238 54 239 0.0 0.0 0.00 0.00 0.00 95 1010.2
20260503010734 54 239 0.0 0.0 0.00 0.00 0.00 95 1009.9
20260503010231 54 240 0.0 0.0 0.00 0.00 0.00 95 1010.2
20260503005728 54 240 0.0 0.0 0.00 0.00 0.00 95 1009.9
20260503005226 54 240 0.0 0.0 0.00 0.00 0.00 95 1009.9
20260503004722 54 240 0.0 0.0 0.00 0.00 0.00 94 1009.9
20260503004220 54 245 0.0 0.0 0.00 0.00 0.00 94 1009.9
20260503003717 55 246 0.0 0.0 0.00 0.00 0.00 94 1009.9
20260503003214 55 241 0.0 0.0 0.00 0.00 0.00 94 1009.9
20260503002711 55 243 0.0 0.0 0.00 0.00 0.00 94 1009.9
20260503002208 55 230 0.0 0.0 0.00 0.00 0.00 94 1009.9
20260503001703 55 231 0.0 0.0 0.00 0.00 0.00 94 1009.6
20260503001200 55 233 0.0 0.0 0.00 0.00 0.00 94 1009.6
20260503000658 55 248 0.0 0.0 0.00 0.00 0.00 94 1009.6
20260503000155 55 238 0.0 0.0 0.00 0.00 0.00 94 1009.6
20260502235652 55 229 0.0 0.0 0.00 0.00 0.00 94 1009.2
20260502235150 55 237 0.0 0.0 0.00 0.00 0.00 94 1009.2
20260502234646 55 233 0.0 0.0 0.00 0.00 0.00 94 1009.2
20260502234143 55 234 0.0 0.0 0.00 0.00 0.00 94 1008.9
20260502233639 55 208 0.0 0.0 0.00 0.00 0.00 94 1009.2
20260502233136 55 226 0.0 0.0 0.00 0.00 0.00 94 1008.9
20260502232632 55 255 0.0 0.0 0.00 0.00 0.00 94 1008.9
20260502232130 55 249 0.0 0.0 0.00 0.00 0.00 94 1008.9
20260502231626 55 246 0.0 0.0 0.00 0.00 0.00 94 1008.9
20260502231124 55 249 0.0 0.0 0.00 0.00 0.00 94 1008.9
20260502230622 55 250 0.0 0.0 0.00 0.00 0.00 94 1008.9
20260502230120 55 255 0.0 0.0 0.00 0.00 0.00 94 1008.9
20260502225615 55 252 0.0 0.0 0.00 0.00 0.00 94 1008.9
20260502225113 55 244 0.0 0.0 0.00 0.00 0.00 94 1008.6
20260502224609 56 243 0.0 0.0 0.00 0.00 0.00 94 1008.9
20260502224106 55 245 0.0 0.0 0.00 0.00 0.00 94 1008.9
20260502223604 55 245 0.0 0.0 0.00 0.00 0.00 94 1008.6
20260502223102 56 252 0.0 0.0 0.00 0.00 0.00 94 1008.6
20260502222559 56 244 0.0 0.0 0.00 0.00 0.00 94 1008.6
20260502222055 55 237 0.0 0.0 0.00 0.00 0.00 94 1008.6
20260502221551 56 249 0.0 0.0 0.00 0.00 0.00 94 1008.9
20260502221048 56 255 0.0 0.0 0.00 0.00 0.00 94 1008.6
20260502220544 56 127 0.0 0.0 0.00 0.00 0.00 94 1008.6
20260502220041 56 252 0.0 0.0 0.00 0.00 0.00 94 1008.6
20260502215538 56 249 0.0 0.0 0.00 0.00 0.00 94 1008.6
20260502215035 56 250 0.0 0.0 0.00 0.00 0.00 94 1008.6
20260502214532 56 90 0.0 0.0 0.00 0.00 0.00 94 1008.6
20260502214029 56 166 0.0 0.0 0.00 0.00 0.00 94 1008.2
20260502213526 56 197 0.0 0.0 0.00 0.00 0.00 94 1008.6
20260502213024 56 229 0.0 0.0 0.00 0.00 0.00 94 1008.6
20260502212523 56 250 0.0 0.0 0.00 0.00 0.00 94 1008.2
20260502212020 56 237 0.0 0.0 0.00 0.00 0.00 94 1008.6
20260502211515 56 251 0.0 0.0 0.00 0.00 0.00 94 1008.2
20260502211013 56 251 0.0 0.0 0.00 0.00 0.00 94 1008.2
20260502210509 56 252 0.0 0.0 0.00 0.00 0.00 94 1008.2
20260502210007 57 248 0.0 0.0 0.00 0.00 0.00 94 1008.2
20260502205503 57 250 0.0 0.0 0.00 0.00 0.00 94 1007.9
20260502205000 57 251 0.0 0.0 0.00 0.00 0.00 94 1007.9
20260502204457 57 225 0.0 0.0 0.00 0.00 0.00 94 1007.5
20260502203955 57 249 0.0 0.0 0.00 0.00 0.00 94 1007.5
20260502203451 57 248 0.0 0.0 0.00 0.00 0.00 94 1007.5
20260502202948 57 260 0.0 0.0 0.00 0.00 0.00 94 1007.5
20260502202445 56 252 0.0 0.0 0.00 0.00 0.00 94 1007.5
20260502201943 56 245 0.0 0.0 0.00 0.00 0.00 94 1007.5
20260502201438 56 242 0.0 0.0 0.00 0.00 0.00 94 1007.9
20260502200936 56 247 0.0 0.0 0.00 0.00 0.00 94 1007.9
20260502200431 56 251 0.0 0.0 0.00 0.00 0.00 94 1008.2
20260502195929 57 254 0.0 0.0 0.00 0.00 0.00 94 1008.2
20260502195426 57 239 0.0 0.0 0.00 0.00 0.00 94 1007.9
20260502194922 57 25 0.0 0.0 0.00 0.00 0.00 94 1007.9
20260502194419 57 252 0.0 0.0 0.00 0.00 0.00 94 1007.9
20260502193915 57 252 0.0 0.0 0.00 0.00 0.00 94 1007.9
20260502193413 57 221 0.0 0.0 0.00 0.00 0.00 94 1007.9
20260502192908 57 266 0.0 0.0 0.00 0.00 0.00 94 1008.2
20260502192405 57 259 0.0 0.0 0.00 0.00 0.00 94 1008.6
20260502191902 57 254 0.0 0.0 0.00 0.00 0.00 94 1008.6
20260502191400 57 245 0.0 0.0 0.00 0.00 0.00 94 1008.2
20260502190857 57 248 0.0 0.0 0.00 0.00 0.00 94 1008.2
20260502190354 57 250 0.0 0.0 0.00 0.00 0.00 94 1007.9
20260502185850 57 251 0.0 0.0 0.00 0.00 0.00 94 1007.5
20260502185346 57 206 0.0 0.0 0.00 0.00 0.00 94 1007.5